Change the Weather History Date:

Sunday, April 27, 2014

  Actual Average Record
Temperature  
Mean Temperature 35 °F 43 °F  
Max Temperature 44 °F 54 °F 70 °F (2001)
Min Temperature 25 °F 32 °F 18 °F (2011)
Degree Days  
Heating Degree Days 30 22  
Month to date heating degree days 649 705  
Since 1 July heating degree days 7251 7773  
Cooling Degree Days 0 0  
Month to date cooling degree days 0 0  
Year to date cooling degree days 0 0  
Moisture  
Dew Point 24 °F    
Average Humidity 68    
Maximum Humidity 92    
Minimum Humidity 43    
Precipitation  
Precipitation 0.00 in 0.05 in 0.20 in (2002)
Month to date precipitation 0.22 0.99  
Year to date precipitation 0.33 3.00  
Sea Level Pressure  
Sea Level Pressure 29.80 in    
Wind  
Wind Speed 16 mph (West)    
Max Wind Speed 23 mph    
Max Gust Speed 38 mph    
Visibility 8 miles    
Events Snow    
T = Trace of Precipitation, MM = Missing Value Source: NWS Daily Summary

Daily Weather History Graph

Daily Weather History Graph

Search for Another Location

Airport or City:

Trip Planner

Search our weather history database for the weather conditions in past years. The results will help you decide how hot, cold, wet, or windy it might be!

Date:

Astronomy

Apr. 27, 2014 Rise Set
Actual Time 6:26 AM MDT 8:17 PM MDT
Civil Twilight 5:57 AM MDT 8:47 PM MDT
Nautical Twilight 5:21 AM MDT 9:23 PM MDT
Astronomical Twilight 4:42 AM MDT 10:02 PM MDT
Moon 5:30 AM MDT (4/27) 6:54 PM MDT (4/27)
Length of Visible Light 14h 49m
Length of Day
13h 50m
Waning Crescent, 3% of the Moon is Illuminated
Apr 27
Waning Crescent
Apr 29
New
May 6
First Quarter
May 14
Full
May 21
Last Quarter

Hourly Weather History & Observations

Time (MDT) Temp. Windchill Dew Point Humidity Pressure Visibility Wind Dir Wind Speed Gust Speed Precip Events Conditions
12:37 AM 32.0 °F 24.2 °F 27.0 °F 82% 29.71 in 10.0 mi West 9.2 mph - N/A   Overcast
12:53 AM 30.0 °F 22.4 °F 26.1 °F 85% 29.65 in 10.0 mi West 8.1 mph - N/A   Scattered Clouds
1:53 AM 30.9 °F 22.2 °F 27.0 °F 85% 29.67 in 10.0 mi WSW 10.4 mph - N/A   Overcast
2:53 AM 30.0 °F 21.7 °F 27.0 °F 88% 29.67 in 10.0 mi West 9.2 mph - N/A   Mostly Cloudy
3:53 AM 28.0 °F 18.6 °F 23.0 °F 81% 29.68 in 10.0 mi West 10.4 mph - N/A   Partly Cloudy
4:53 AM 26.1 °F 15.6 °F 19.9 °F 78% 29.71 in 10.0 mi West 11.5 mph - N/A   Clear
6:53 AM 25.0 °F 13.6 °F 18.0 °F 75% 29.77 in 10.0 mi WSW 12.7 mph - N/A   Clear
7:53 AM 28.0 °F 18.1 °F 19.9 °F 72% 29.78 in 10.0 mi WSW 11.5 mph - N/A   Clear
8:53 AM 32.0 °F 20.8 °F 18.0 °F 56% 29.77 in 10.0 mi West 17.3 mph 26.5 mph N/A   Scattered Clouds
10:53 AM 36.0 °F 24.2 °F 18.0 °F 48% 29.77 in 10.0 mi WNW 24.2 mph 33.4 mph N/A   Mostly Cloudy
11:53 AM 37.9 °F 27.1 °F 18.0 °F 45% 29.77 in 10.0 mi West 23.0 mph 31.1 mph N/A   Mostly Cloudy
12:53 PM 39.0 °F 29.6 °F 18.0 °F 43% 29.77 in 10.0 mi West 18.4 mph 28.8 mph N/A   Overcast
2:53 PM 39.9 °F 30.5 °F 19.0 °F 43% 29.77 in 10.0 mi West 19.6 mph 29.9 mph N/A   Overcast
3:53 PM 43.0 °F 33.8 °F 19.9 °F 40% 29.76 in 10.0 mi West 23.0 mph 29.9 mph N/A   Mostly Cloudy
4:53 PM 39.0 °F 29.6 °F 19.9 °F 46% 29.79 in 10.0 mi West 18.4 mph 27.6 mph N/A   Mostly Cloudy
5:53 PM 42.1 °F 33.1 °F 21.0 °F 43% 29.79 in 10.0 mi WSW 20.7 mph 28.8 mph N/A   Overcast
6:53 PM 37.0 °F 27.0 °F 23.0 °F 57% 29.84 in 10.0 mi West 18.4 mph - N/A   Overcast
7:11 PM 34.0 °F 22.4 °F 28.0 °F 79% 29.85 in 2.5 mi West 20.7 mph - 0.00 in Snow Light Snow
7:20 PM 33.1 °F 21.9 °F 28.9 °F 85% 29.85 in 2.0 mi West 18.4 mph - 0.00 in Snow Light Snow
7:31 PM 34.0 °F 23.4 °F 28.9 °F 82% 29.85 in 4.0 mi WSW 17.3 mph - 0.00 in Snow Light Snow
7:53 PM 33.1 °F 24.4 °F 27.0 °F 78% 29.85 in 10.0 mi WSW 11.5 mph - 0.00 in   Partly Cloudy
8:49 PM 32.0 °F 23.0 °F 28.4 °F 87% 29.88 in 9.0 mi West 11.5 mph - 0.00 in Snow Light Snow
8:53 PM 32.0 °F 20.5 °F 28.0 °F 85% 29.88 in 2.0 mi West 18.4 mph 26.5 mph 0.00 in Snow Light Snow
8:56 PM 30.9 °F 19.4 °F 28.9 °F 92% 29.88 in 1.5 mi West 17.3 mph 26.5 mph 0.00 in Snow Light Snow
8:59 PM 30.9 °F 18.7 °F 28.9 °F 92% 29.88 in 1.2 mi West 19.6 mph 26.5 mph 0.00 in Snow Light Snow
9:04 PM 30.9 °F 19.8 °F 28.0 °F 89% 29.89 in 2.0 mi WNW 16.1 mph - 0.00 in Snow Light Snow
9:06 PM 30.9 °F 19.4 °F 28.0 °F 89% 29.89 in 3.0 mi West 17.3 mph - 0.00 in Snow Light Snow
9:13 PM 30.9 °F 19.8 °F 28.0 °F 89% 29.89 in 9.0 mi WNW 16.1 mph 24.2 mph 0.00 in Snow Light Snow
9:22 PM 30.9 °F 20.2 °F 28.0 °F 89% 29.89 in 10.0 mi WNW 15.0 mph - 0.00 in   Overcast
9:53 PM 30.9 °F 22.2 °F 26.1 °F 82% 29.87 in 10.0 mi West 10.4 mph - 0.00 in   Mostly Cloudy